#timestamp,LO_Frequency,Hit,StdDev 
1643677215.7,286046998.1,N
1643677235.5,286046999.9,N
1643677255.4,286046998.9,N
1643677275.2,286047001.2,N
1643677295.0,286047000.8,N
1643677295.9,286047000.8,N
1643677315.8,286046998.5,N
1643677335.6,286046996.6,N
1643677355.4,286046996.6,N
1643677375.3,286046999.6,N
1643677395.1,286046996.7,N
1643677396.0,286046996.7,N
1643677415.8,286046998.0,N
1643677435.7,286046997.0,N
1643677455.5,286046997.2,N
1643677475.3,286046998.0,N
1643677495.2,286046997.7,N
1643677515.9,286046999.2,N
1643677535.7,286046997.0,N
1643677555.6,286046996.6,N
1643677575.4,286046997.1,N
1643677595.2,286046997.6,N
1643677615.1,286046995.4,N
1643677616.0,286046995.4,N
1643677635.8,286046994.9,N
1643677655.6,286046999.6,N
1643677675.5,286046997.9,N
1643677695.3,286046999.1,N
1643677715.1,286046996.8,N
1643677735.9,286046999.4,N
1643677755.7,286046999.0,N
1643677775.5,286046999.0,N
1643677795.4,286046998.9,N
1643677815.2,286046996.6,N
1643677835.0,286046996.7,N
1643677835.9,286046996.7,N
1643677855.8,286046996.9,N
1643677875.6,286046997.6,N
1643677895.4,286046996.8,N
1643677915.3,286046999.5,N
1643677935.1,286046999.4,N
1643677936.0,286046999.4,N
1643677955.8,286046996.5,N
1643677975.6,286046998.4,N
1643677995.5,286046999.0,N
1643678015.3,286046997.5,N
1643678035.1,286046998.9,N
1643678055.9,286046997.5,N
1643678075.7,286046995.8,Y
1643678095.5,286046999.4,P
1643678115.4,286046998.7,N
1643678135.2,286046998.9,N
1643678155.0,286046996.6,Y
1643678155.9,286046996.6,P
1643678175.8,286047000.5,N
1643678195.6,286046998.4,N
1643678215.4,286047001.0,N
1643678235.3,286046998.4,N
1643678255.1,286047001.0,N
1643678275.8,286047000.9,N
1643678295.7,286047000.7,N
1643678315.5,286047000.5,N
1643678335.3,286046998.6,N
1643678355.2,286047000.4,N
1643678375.0,286046998.9,N
1643678375.9,286046998.9,N
1643678395.7,286046998.2,N
1643678415.6,286047000.0,N
1643678435.4,286047000.9,N
1643678455.2,286047001.1,N
1643678475.1,286046998.6,N
1643678476.0,286046998.6,N
1643678495.8,286047000.8,N
1643678515.6,286046998.1,N
1643678535.5,286046996.5,N
1643678555.3,286046998.4,N
1643678575.1,286046999.3,N
1643678595.9,286047001.2,N
1643678615.7,286046998.2,N
1643678635.5,286046998.8,N
1643678655.4,286046998.5,N
1643678675.2,286046996.5,N
1643678695.0,286046999.2,N
1643678695.9,286046999.2,N
1643678715.8,286046999.3,N
1643678735.6,286046996.9,N
1643678755.4,286046998.9,N
1643678775.3,286046999.2,N
1643678795.1,286046996.9,N
1643678796.0,286046996.9,N
1643678815.8,286046999.5,N
1643678835.7,286046996.6,N
1643678855.5,286046999.4,N
1643678875.3,286046998.8,N
1643678895.2,286046998.3,N
1643678915.0,286046998.5,N
1643678915.9,286046998.5,N
1643678935.7,286046996.7,N
1643678955.6,286046996.6,N
1643678975.4,286046999.0,N
1643678995.2,286047000.6,N
1643679015.1,286046998.4,N
1643679016.0,286046998.4,N
1643679035.8,286046996.7,N
1643679055.7,286046996.9,N
1643679075.5,286046996.6,N
1643679095.3,286046997.9,N
1643679115.1,286046997.9,N
1643679135.9,286046995.1,Y
1643679155.7,286046998.9,P
1643679175.6,286046999.4,N
1643679195.4,286046999.1,N
1643679215.2,286047000.7,N
1643679235.0,286047000.8,N
1643679236.0,286047000.8,N
1643679255.8,286046998.9,N
1643679275.6,286046999.0,N
1643679295.4,286047001.2,N
1643679315.3,286046998.4,N
1643679335.1,286046996.6,Y
1643679355.9,286046998.4,P
1643679375.7,286046998.3,N
1643679395.5,286047001.2,N
1643679415.3,286046999.8,N
1643679435.2,286046998.2,N
1643679455.0,286046998.2,N
1643679455.9,286046998.2,N
1643679475.8,286046998.4,N
1643679495.6,286046999.3,N
1643679515.4,286046996.7,Y
1643679535.3,286046998.9,P
1643679555.1,286046999.0,P
1643679556.0,286046999.0,P
1643679575.8,286046999.3,Y
1643679595.7,286046998.1,P
1643679615.5,286047000.7,N
1643679635.3,286047002.8,N
1643679655.2,286047002.5,N
1643679675.9,286047002.2,N
1643679695.7,286047002.4,N
1643679715.6,286047002.1,N
1643679735.4,286047004.4,N
1643679755.2,286047001.8,N
1643679775.1,286047001.6,N
1643679776.0,286047001.6,N
1643679795.8,286047003.6,N
1643679815.6,286047006.0,Y
1643679835.5,286047001.9,P
1643679855.3,286047000.3,P
1643679875.1,286047001.0,N
1643679895.9,286046999.9,N
1643679915.7,286046999.8,N
1643679935.5,286047000.6,N
1643679955.4,286047000.3,N
1643679975.2,286047000.8,N
1643679995.0,286046998.9,N
1643679995.9,286046998.9,N
1643680015.8,286046998.3,N
1643680035.6,286046998.3,N
1643680055.4,286046998.4,N
1643680075.3,286046998.5,N
1643680095.1,286047000.9,N
1643680096.0,286047000.9,N
1643680115.8,286047000.6,N
1643680135.7,286047000.2,N
1643680155.5,286047002.7,N
1643680175.3,286047002.0,N
1643680195.1,286047002.3,N
1643680215.9,286046998.7,N
1643680235.7,286046998.5,N
1643680255.5,286047001.2,N
1643680275.4,286047002.7,N
1643680295.2,286047002.7,N
1643680315.0,286047001.5,N
1643680315.9,286047001.5,N
1643680335.8,286046999.8,N
1643680355.6,286046998.6,N
1643680375.4,286046999.5,N
1643680395.3,286046999.5,N
1643680415.1,286046996.9,N
1643680435.8,286046997.1,N
1643680455.7,286046996.7,N
1643680475.5,286046999.1,N
1643680495.3,286046998.5,N
1643680515.2,286046998.6,N
1643680535.9,286046998.3,N
1643680555.7,286046998.5,N
1643680575.6,286047001.0,N
1643680595.4,286047000.8,N
1643680615.2,286047000.0,N
1643680635.1,286047000.0,N
1643680636.0,286047000.0,N
1643680655.8,286047002.3,N
1643680675.6,286046999.7,N
1643680695.5,286046999.9,N
1643680715.3,286047001.4,N
1643680735.1,286047000.3,N
1643680755.9,286046999.9,N
1643680775.7,286047000.0,N
1643680795.5,286047000.9,N
